Location: Unspecified
(30.8073°N, 0.0000°E)
Time: 13:02:45
(UTC+00:00)

ISS - Visible Passes

Search period start: 20 June 2019 00:00
Search period end: 30 June 2019 00:00
Orbit: 407 x 418 km, 51.6° (Epoch: 20 June)

Date Brightness Start Highest point End Pass type
(mag) Time Alt. Az. Time Alt. Az. Time Alt. Az.
25 Jun -1.0 03:53:29 10° SE 03:54:37 11° SE 03:55:46 10° ESE visible
27 Jun -2.8 03:49:49 18° SSW 03:51:52 38° SE 03:54:58 10° ENE visible
28 Jun -1.7 03:02:22 19° SE 03:02:24 19° SE 03:04:48 10° E visible
29 Jun -3.4 03:47:40 26° WSW 03:49:14 53° NW 03:52:28 10° NE visible
